STARLINK-4598, 53630

Orbit data source: Space-Track

STARLINK-4598, 53630 is a payload satellite owned by SpaceX/Seattle (US) in LEO that was launched on Sun, 28 Aug 2022 UTC via an FALCON 9 launch vehicle from the Air Force Eastern Test Range (AFETR). Payload-class satellites include a variety of spacecraft equipped with specific instruments for various scientific and technological missions. These include communications satellites like Starlink; space stations such as the ISS; scientific satellites like the Hubble; Earth observation satellites from companies like Planet Labs, Umbra, and HawkEye 360; GPS; miniature CubeSats for education and research; and military/defense satellites.

Loading next visibility...
Identifier
53630, 2022-104AU
Orbit
LEO
Country
Flag of USUS
Related business
Manufacturer
SpaceX/Seattle
Mission
Operational Commercial Communications
Bus & Motor
STARLINK, Unknown motor
Mass
300 kg wet, ~290 kg dry
Launch date (UTC)
2022-08-28 (3 years ago)
Launch vehicle
FALCON 9
Launch site
Air Force Eastern Test Range (AFETR)
Object type
Payload
Rocket body
Debris
Shape & HBR
Box + 1 Pan, 10.1 m
Radar Cross Section
13.562 m², Large (>1 m²)

Expand to show TLE details & history
Last TLE update: 17 hours ago

TLE from 17 hours ago
0 STARLINK-4598
1 53630U 22104AU  26036.62555670  .00001350  00000-0  10289-3 0  9991
2 53630  53.2208   8.1368 0001400  91.1646 268.9506 15.08844098191225
Epoch: 2026-02-05T15:00Z
TLE epoch observation values (Epoch: 2026-02-05T15:00:48.098Z)
Latitude
-0.00009°
Longitude
7.16123°
Altitude
540.647 km
Speed
7.593 km/s
True Right ascension
00h 32m 32s
True Declination
0° 00' 00"
Sunlit
Object was in daylight at epoch
Visualization orbit readout
Latitude
Unknown
Longitude
Unknown
Altitude
Unknown
Speed
Unknown
Apparent Right ascension
Unknown
Apparent Declination
Unknown
Sunlit
N/A
Visualization observer readout
Local Sidereal Time
10:35:30
Azimuth
Unknown
Elevation
Unknown
Doppler factor
Unknown
Orbital elements
Apogee altitude
540.944 km
Perigee altitude
539.007 km
Semi-major axis
6,918.112 km
Eccentricity
0.00014
Inclination
53.2208°
RAAN
8.1368°
Arg. of periapsis
91.1646°
True anomaly
268.93456°
Mean anomaly
268.9506°
Eccentric anomaly
268.94258°
Mean motion
3.77191 °/min
Orbital period
95.44 mins
BSTAR
0.00010289
Loading maneuver chart data...
Computing Atmospheric mass density...
Loading historical data...
Loading historical data...
Loading historical data...
Loading historical data...
Loading historical data...
Loading historical data...
Loading historical data...

Documentation

Showing up to 5 results
|